Regional Weather Roundup
Issued by NWS

Home | Current Version | Previous Version | Graphics & Text | Print | Product List | Glossary On
Versions: 1 2 3 4 5 6 7 8 9 10 11 12 13 14 15 16 17 18 19 20 21 22 23 24 25 26 27 28 29 30 31 32 33 34 35 36 37 38 39 40 41 42 43 44 45 46 47 48 49 50
000
ASUS43 KLOT 041300
RWRIL

ILLINOIS REGIONAL WEATHER ROUNDUP
NATIONAL WEATHER SERVICE CHICAGO/ROMEOVILLE IL
800 AM CDT TUE AUG 04 2015

NOTE: "FAIR" INDICATES FEW OR NO CLOUDS BELOW 12,000 FEET WITH NO
SIGNIFICANT WEATHER AND/OR OBSTRUCTIONS TO VISIBILITY.

* THESE STATIONS ARE NOT UNDER NWS QUALITY CONTROL. THEY ALSO MAY NOT
  REPORT WEATHER SUCH AS PRECIPITATION OR FOG.

ILZ001-002-007-009-015-016-024-041400-
NORTHWEST ILLINOIS

CITY           SKY/WX    TMP DP  RH WIND       PRES   REMARKS
MOLINE         MOSUNNY   67  61  81 W3        29.98F
STERLING*      SUNNY     66  59  77 W6        29.96S
$$

ILZ003-004-008-010-011-017-018-041400-
NORTH CENTRAL ILLINOIS

CITY           SKY/WX    TMP DP  RH WIND       PRES   REMARKS
ROCKFORD       PTSUNNY   62  57  83 S3        29.99R
$$

ILZ005-006-012>014-019>023-041400-
NORTHEAST ILLINOIS

CITY           SKY/WX    TMP DP  RH WIND       PRES   REMARKS
CHICAGO-OHARE  MOSUNNY   68  57  68 W5        29.96R
CHICAGO-MIDWAY MOSUNNY   70  56  61 W3        29.96R
AURORA         SUNNY     63  57  81 W3        29.98R
WAUKEGAN       SUNNY     68  57  68 VRB5      29.95R
DUPAGE AIRPORT SUNNY     65  58  78 W3        29.97R
WHEELING       SUNNY     68  54  60 W5        29.97S
NORTHERLY ISL    N/A     71  55  56 W6          N/A
$$

LMZ740>746-041400-
SOUTHERN LAKE MICHIGAN

STATION/POSITION SKY/WX   TEMP    WIND        PRES    VSBY  WAVE
                          AIR SEA DIR/SP/G                  HT/PER
                          (F)     (DEG/KT/KT) (MB)    (MI)  (FT/S)
HARRISON CRIB              68     270/  8/  8   N/A
BURNHAM HARBOR             69     270/  6/  7   N/A
CALUMET HARBOR             67     240/  3/  4   N/A
BURNS HARBOR               65     190/  5/  7 1014.9R
MICHIGAN CITY              64     170/  3/  4   N/A
MICHIGAN CITY 6N           72 73  280/  6/  8   N/A           2/ 4
ST. JOSEPH                 71 73  340/  4/  4   N/A           2/ 4
$$

ILZ025>027-034>036-040-047-049-050-058-095>099-041400-
WEST-CENTRAL ILLINOIS

CITY           SKY/WX    TMP DP  RH WIND       PRES   REMARKS
QUINCY         CLOUDY    68  63  84 SW7       30.02R
MACOMB*        PTSUNNY   65  61  85 CALM      30.02R
$$

ILZ028>032-037-038-041>044-048-051>054-059>061-041400-
CENTRAL ILLINOIS

CITY           SKY/WX    TMP DP  RH WIND       PRES   REMARKS
DECATUR        PTSUNNY   70  61  73 SW3       30.01R
PEORIA         MOSUNNY   68  59  73 CALM      30.00R
SPRINGFIELD    PTSUNNY   68  64  87 CALM      30.00S
TAYLORVILLE    NOT AVBL
$$

ILZ033-039-045-046-055>057-062-063-041400-
EAST-CENTRAL ILLINOIS

CITY           SKY/WX    TMP DP  RH WIND       PRES   REMARKS
CHAMPAIGN      MOSUNNY   67  63  87 CALM      30.01R
MATTOON        PTSUNNY   71  59  65 CALM      30.00R
PARIS*         MOSUNNY   65  63  93 CALM      30.01S
$$

ILZ079-100>102-041400-
SOUTHWEST ILLINOIS

CITY           SKY/WX    TMP DP  RH WIND       PRES   REMARKS
ALTON          CLOUDY    70  66  88 VRB5      30.00R
BELLEVILLE     CLOUDY    74  72  93 NE3       29.98R
CAHOKIA*       PTSUNNY   76  68  76 E5        29.98S
$$

ILZ064>066-069>071-074>076-080>082-084>086-088>090-092>094-041400-
SOUTH-CENTRAL ILLINOIS

CITY           SKY/WX    TMP DP  RH WIND       PRES   REMARKS
CARBONDALE     MOSUNNY   76  72  87 CALM      29.96F
MARION         MOSUNNY   75  72  88 N7        29.98S
MT. VERNON     CLOUDY    73  64  73 N6        29.99S
SALEM*         CLOUDY    72  67  85 CALM      30.00R
$$

ILZ067-068-072-073-078-083-087-091-041400-
SOUTHEAST ILLINOIS

CITY           SKY/WX    TMP DP  RH WIND       PRES   REMARKS
LAWRENCEVILLE  CLOUDY    74  64  71 NE3       29.99S
HARRISBURG*    PTSUNNY   74  73  94 NE5       29.98S
ROBINSON*      CLOUDY    70  65  85 CALM      30.01R
$$

ABBREVIATIONS USED IN REMARKS
   TC - TEMPERATURE IN CELSIUS
  WCI - WIND CHILL INDEX
   HX - HEAT INDEX
  VSB - VISIBILITY
$$



USA.gov is the U.S. government's official web portal to all federal, state and local government web resources and services.